全部
Smalandsstenar Airport (Smalandsstenar) ESMY 天氣
There is no TAF data available at ESMY or any nearby airports.
There is no METAR data available at ESMY. Showing METAR data for ESMV (27 mi E).
ESMV近期METAR歷史資料(ESMY無資料)
| Date | Time (CEST) | Flight Rules | Wind Dir. | Speed | Type | Height AGL (ft) | Visibility | Temp (°C) | Temp (°F) | Dew Point (°C) | Dew Point (°F) | Rel. Humid. | Pressure | Density Altitude | Remarks |
|---|---|---|---|---|---|---|---|---|---|---|---|---|---|---|---|
| 05-五月 | 21:20 | VFR | Variable | 2 kt | 10000 meters | 6° | 42° | -5° | 23° | 45% | 1010 mb | -429 ft | |||
| 05-五月 | 20:50 | VFR | 300° | 3 kt | 10000 meters | 9° | 48° | -7° | 19° | 31% | 1010 mb | -69 ft | |||
| 05-五月 | 20:20 | VFR | 310° | 4 kt | 10000 meters | 10° | 50° | -8° | 17° | 27% | 1010 mb | 51 ft | |||
| 05-五月 | 19:50 | VFR | 290° | 7 kt | 10000 meters | 12° | 53° | -7° | 19° | 26% | 1010 mb | 291 ft | |||
| 05-五月 | 19:20 | VFR | 290° | 7 kt | 10000 meters | 12° | 53° | -8° | 17° | 24% | 1009 mb | 320 ft | |||
| 05-五月 | 18:50 | VFR | 280° | 6 kt | 10000 meters | 13° | 55° | -9° | 15° | 21% | 1009 mb | 440 ft | |||
| 05-五月 | 18:20 | VFR | 290° | 9 kt | 10000 meters | 13° | 55° | -9° | 15° | 21% | 1009 mb | 440 ft | |||
| 05-五月 | 17:50 | VFR | 290° | 8 kt | 10000 meters | 14° | 57° | -9° | 15° | 19% | 1009 mb | 560 ft | |||
| 05-五月 | 17:20 | VFR | 270° | 7 kt | 10000 meters | 14° | 57° | -9° | 15° | 19% | 1009 mb | 560 ft | |||
| 05-五月 | 16:50 | VFR | 260° | 6 kt | 10000 meters | 14° | 57° | -8° | 17° | 21% | 1009 mb | 560 ft | |||
| 05-五月 | 16:20 | VFR | 270° | 8 kt | 10000 meters | 14° | 57° | -9° | 15° | 19% | 1009 mb | 560 ft | |||
| 05-五月 | 15:50 | VFR | 300° | 6 kt | 10000 meters | 14° | 57° | -9° | 15° | 19% | 1009 mb | 560 ft | |||
| 05-五月 | 15:20 | VFR | 280° | 7 kt | 10000 meters | 14° | 57° | -9° | 15° | 19% | 1009 mb | 560 ft | |||
| 05-五月 | 14:50 | VFR | 300° | 7 kt | 10000 meters | 13° | 55° | -9° | 15° | 21% | 1009 mb | 440 ft | |||
| 05-五月 | 14:20 | VFR | 260° | 10 kt | 10000 meters | 14° | 57° | -9° | 15° | 19% | 1009 mb | 560 ft | |||
| 05-五月 | 13:50 | VFR | 270° | 8 kt | 10000 meters | 13° | 55° | -10° | 14° | 19% | 1009 mb | 440 ft | |||
| 05-五月 | 13:20 | VFR | 250° | 8 kt | 10000 meters | 13° | 55° | -9° | 15° | 21% | 1009 mb | 440 ft | |||
| 05-五月 | 12:50 | VFR | 310° | 7 kt | 10000 meters | 13° | 55° | -10° | 14° | 19% | 1009 mb | 440 ft | |||
| 05-五月 | 12:20 | VFR | 270° | 7 kt | 10000 meters | 12° | 53° | -9° | 15° | 22% | 1009 mb | 320 ft | |||
| 05-五月 | 11:50 | VFR | 270° | 7 kt | 10000 meters | 12° | 53° | -7° | 19° | 26% | 1009 mb | 320 ft | |||
| 05-五月 | 11:20 | VFR | 290° | 7 kt | Few |
5,800 |
10000 meters | 12° | 53° | -5° | 23° | 30% | 1009 mb | 320 ft | |
| 05-五月 | 10:50 | VFR | 320° | 8 kt | Few |
5,200 |
10000 meters | 11° | 51° | -5° | 23° | 32% | 1009 mb | 200 ft | |
| 05-五月 | 10:20 | VFR | 250° | 9 kt | 10000 meters | 10° | 50° | -2° | 28° | 43% | 1009 mb | 80 ft | |||
| 05-五月 | 09:50 | VFR | 270° | 8 kt | 10000 meters | 10° | 50° | -1° | 30° | 46% | 1009 mb | 80 ft |
登入
| 您的瀏覽器不支援. 升級您的瀏覽器 |
